FW2611 Weather Reports


time (UTC)temp
C
wind
direction
speed
KPH
gust
KPH
rain 1hr
cm
rain 24hr
cm
rain mn
cm
humidity
%
barometer
mb
20260505034522 12 217 9.7 20.9 0.00 0.00 0.00 85 1012.8
20260505033024 12 163 8.0 20.9 0.00 0.00 0.00 85 1012.8
20260505031527 12 211 11.3 27.4 0.00 0.00 0.00 85 1012.8
20260505024512 12 207 11.3 25.7 0.00 0.00 0.00 85 1013.0
20260505023003 12 193 11.3 27.4 0.00 0.00 0.00 86 1013.1
20260505021504 12 204 12.9 25.7 0.00 0.00 0.00 86 1013.1
20260505020004 12 201 8.0 24.1 0.00 0.00 0.00 85 1013.1
20260505014508 12 175 9.7 20.9 0.00 0.00 0.00 85 1013.1
20260505013017 12 161 11.3 22.5 0.00 0.00 0.00 84 1013.1
20260505011506 12 196 14.5 25.7 0.00 0.00 0.00 83 1012.9
20260505010008 12 229 16.1 27.4 0.00 0.00 0.00 82 1012.8
20260505004508 13 231 14.5 27.4 0.00 0.00 0.00 81 1012.8
20260505003010 13 212 17.7 35.4 0.00 0.00 0.00 80 1012.6
20260505001506 13 203 17.7 32.2 0.00 0.00 0.00 79 1012.4
20260505000026 13 193 17.7 32.2 0.00 0.00 0.00 78 1012.3
20260504234508 13 200 12.9 25.7 0.00 0.00 0.00 77 1012.0
20260504233015 15 218 17.7 32.2 0.00 0.00 0.00 74 1012.2
20260504231522 15 186 19.3 32.2 0.00 0.00 0.00 72 1012.1
20260504230008 16 215 16.1 24.1 0.00 0.00 0.00 70 1012.2
20260504224508 16 209 12.9 27.4 0.00 0.00 0.00 68 1012.2
20260504223009 17 204 12.9 22.5 0.00 0.00 0.00 66 1012.1
20260504221510 17 165 11.3 24.1 0.00 0.00 0.00 65 1012.1
20260504220018 18 212 6.4 17.7 0.00 0.00 0.00 64 1012.1
20260504214510 18 205 8.0 14.5 0.00 0.00 0.00 62 1012.0
20260504213014 18 194 4.8 16.1 0.00 0.00 0.00 64 1012.2
20260504211513 18 207 9.7 19.3 0.00 0.00 0.00 64 1012.5
20260504210012 18 170 11.3 20.9 0.00 0.00 0.00 64 1012.5
20260504204523 17 197 8.0 22.5 0.00 0.00 0.00 65 1012.7
20260504203020 17 204 11.3 25.7 0.00 0.00 0.00 67 1012.8
20260504201512 17 194 14.5 25.7 0.00 0.00 0.00 67 1012.8
20260504200024 17 195 16.1 25.7 0.00 0.00 0.00 65 1012.9
20260504194531 17 171 11.3 20.9 0.00 0.00 0.00 66 1013.1
20260504193020 16 192 9.7 24.1 0.00 0.00 0.00 68 1013.1
20260504191507 16 180 12.9 27.4 0.00 0.00 0.00 68 1013.2
20260504190010 16 105 16.1 30.6 0.00 0.00 0.00 69 1013.4
20260504184514 16 161 16.1 27.4 0.00 0.00 0.00 69 1013.5
20260504183004 16 190 17.7 37.0 0.00 0.00 0.00 68 1013.7
20260504181503 16 207 19.3 27.4 0.00 0.00 0.00 67 1013.8
20260504180013 16 178 14.5 25.7 0.00 0.00 0.00 67 1013.8
20260504174512 16 179 16.1 30.6 0.00 0.00 0.00 68 1014.0
20260504173020 16 200 16.1 30.6 0.00 0.00 0.00 68 1014.2
20260504171504 16 193 14.5 25.7 0.00 0.00 0.00 68 1014.5
20260504081518 10 200 6.4 16.1 0.00 0.00 0.00 70 1016.5
20260504050016 11 246 6.4 19.3 0.00 0.00 0.00 53 1016.0
20260504044519 11 219 8.0 20.9 0.00 0.00 0.00 53 1015.9
20260504043024 11 224 9.7 20.9 0.00 0.00 0.00 52 1015.8
20260504041527 11 234 14.5 22.5 0.00 0.00 0.00 51 1015.9
20260504040031 11 228 9.7 19.3 0.00 0.00 0.00 51 1015.6